Location: Noordwijk
(52.2400°N, 4.4500°E)
Time: 19:46:59
(UTC+00:00)

AO-7 - Pass Details

Date: 14 December 2022
Orbit: 1440 x 1459 km, 101.9° (Epoch: 31 January)

Event Time Altitude Azimuth Distance (km) Brightness Sun altitude
Rises 03:18:54 0° 23° (NNE) 4,550 ? -39.0°
Reaches altitude 10° 03:22:12 10° 34° (NE) 3,569 ? -38.5°
Maximum altitude 03:29:19 30° 93° (E) 2,348 ? -37.5°
Drops below altitude 10° 03:36:23 10° 152° (SSE) 3,563 ? -36.4°
Sets 03:39:38 0° 163° (SSE) 4,540 ? -35.9°
